Weather History for KPOB - August, 2013

Change the Weather History Date:

Friday, August 23, 2013

  Actual Average Record
Temperature  
Mean Temperature 79 °F -  
Max Temperature 90 °F 88 °F 104 °F (2002)
Min Temperature 69 °F 68 °F 60 °F (1978)
Cooling Degree Days 14    
Growing Degree Days 29 (Base 50)    
Moisture  
Dew Point 70 °F    
Average Humidity 83    
Maximum Humidity 100    
Minimum Humidity 52    
Precipitation  
Precipitation 0.00 in - - ()
Sea Level Pressure  
Sea Level Pressure 30.01 in    
Wind  
Wind Speed 5 mph (WNW)    
Max Wind Speed 9 mph    
Max Gust Speed 20 mph    
Visibility 7 miles    
Events Fog , Thunderstorm    
Averages and records for this station are not official NWS values.
T = Trace of Precipitation, MM = Missing Value Source: NWS Daily Summary

Daily Weather History Graph

Daily Weather History Graph

Search for Another Location

Airport or City:

Trip Planner

Search our weather history database for the weather conditions in past years. The results will help you decide how hot, cold, wet, or windy it might be!

Date:

Astronomy

Aug. 23, 2013 Rise Set
Actual Time 6:42 AM EDT 7:54 PM EDT
Civil Twilight 6:15 AM EDT 8:20 PM EDT
Nautical Twilight 5:44 AM EDT 8:52 PM EDT
Astronomical Twilight 5:11 AM EDT 9:24 PM EDT
Moon 9:22 PM EDT (8/23) 9:26 AM EDT (8/23)
Length of Visible Light 14h 05m
Length of Day
13h 12m
Waning Gibbous, 91% of the Moon is Illuminated
Aug 23
Waning Gibbous
Aug 28
Last Quarter
Sep 5
New
Sep 12
First Quarter
Sep 19
Full

Hourly Weather History & Observations

Time (EDT) Temp. Heat Index Dew Point Humidity Pressure Visibility Wind Dir Wind Speed Gust Speed Precip Events Conditions
12:58 AM 74.3 °F - 70.9 °F 89% 30.03 in 10.0 mi West 4.6 mph - N/A   Overcast
1:58 AM 73.9 °F - 70.7 °F 90% 30.01 in 10.0 mi SW 4.6 mph - N/A   Scattered Clouds
2:58 AM 74.3 °F - 71.1 °F 90% 30.01 in 10.0 mi SSW 6.9 mph - N/A   Clear
3:58 AM 72.3 °F - 70.3 °F 93% 29.99 in 8.0 mi SW 1.2 mph - N/A   Clear
4:08 AM 71.6 °F - 69.8 °F 94% 29.98 in 10.0 mi Calm Calm - N/A   Clear
4:31 AM 71.6 °F - 69.8 °F 94% 29.99 in 10.0 mi SW 3.5 mph - N/A   Partly Cloudy
4:58 AM 71.4 °F - 70.0 °F 95% 29.99 in 10.0 mi WSW 2.3 mph - N/A   Partly Cloudy
5:58 AM 70.7 °F - 69.8 °F 97% 30.01 in 10.0 mi SW 4.6 mph - N/A   Clear
6:17 AM 69.8 °F - 69.8 °F 100% 30.00 in 10.0 mi WSW 5.8 mph - N/A   Partly Cloudy
6:27 AM 71.6 °F - 69.8 °F 94% 30.01 in 10.0 mi West 4.6 mph - N/A   Mostly Cloudy
6:52 AM 71.6 °F - 69.8 °F 94% 30.01 in 3.0 mi West 3.5 mph - N/A   Overcast
6:57 AM 71.6 °F - 69.8 °F 94% 30.02 in 2.0 mi West 3.5 mph - N/A   Overcast
6:58 AM 71.6 °F - 69.8 °F 94% 30.03 in 2.0 mi West 3.5 mph - N/A   Overcast
7:03 AM 71.6 °F - 69.8 °F 94% 30.01 in 1.2 mi Variable 3.5 mph - N/A   Overcast
7:08 AM 71.6 °F - 69.8 °F 94% 30.01 in 0.8 mi WNW 4.6 mph - N/A   Mist
7:13 AM 71.6 °F - 69.8 °F 94% 30.01 in 0.5 mi NW 3.5 mph - N/A Fog Fog
7:18 AM 71.6 °F - 69.8 °F 94% 30.01 in 0.2 mi WNW 3.5 mph - N/A Fog Fog
7:23 AM 71.6 °F - 69.8 °F 94% 30.02 in 0.5 mi WNW 4.6 mph - N/A Fog Fog
7:28 AM 71.6 °F - 69.8 °F 94% 30.02 in 1.0 mi West 4.6 mph - N/A   Mist
7:33 AM 71.6 °F - 69.8 °F 94% 30.02 in 1.5 mi WNW 4.6 mph - N/A   Overcast
7:38 AM 71.6 °F - 69.8 °F 94% 30.02 in 1.2 mi WNW 4.6 mph - N/A   Overcast
7:43 AM 71.6 °F - 69.8 °F 94% 30.02 in 2.5 mi WNW 4.6 mph - N/A   Overcast
7:48 AM 71.6 °F - 69.8 °F 94% 30.02 in 8.0 mi Variable 3.5 mph - N/A   Overcast
7:58 AM 71.6 °F - 70.9 °F 98% 30.04 in 10.0 mi WNW 4.6 mph - N/A   Overcast
8:33 AM 73.4 °F - 71.6 °F 94% 30.03 in 10.0 mi NW 4.6 mph - N/A   Scattered Clouds
8:58 AM 75.2 °F - 71.1 °F 87% 30.04 in 10.0 mi West 5.8 mph - N/A   Clear
9:58 AM 80.2 °F 83.9 °F 71.4 °F 74% 30.04 in 10.0 mi WNW 8.1 mph - N/A   Clear
10:58 AM 84.0 °F 89.0 °F 71.2 °F 65% 30.04 in 10.0 mi WNW 5.8 mph - N/A   Clear
11:58 AM 86.0 °F 91.8 °F 71.6 °F 62% 30.03 in 10.0 mi West 3.5 mph - N/A   Clear
12:58 PM 87.8 °F 93.0 °F 70.3 °F 56% 30.01 in 10.0 mi North 6.9 mph - N/A   Clear
1:58 PM 89.2 °F 94.1 °F 69.4 °F 52% 29.99 in 10.0 mi West 9.2 mph 19.6 mph N/A   Partly Cloudy
2:58 PM 88.5 °F 93.1 °F 69.6 °F 53% 29.96 in 10.0 mi NW 9.2 mph - N/A   Partly Cloudy
3:58 PM 89.4 °F 94.4 °F 69.8 °F 52% 29.96 in 10.0 mi West 9.2 mph - N/A   Clear
4:58 PM 88.7 °F 93.9 °F 70.2 °F 54% 29.94 in 10.0 mi NW 5.8 mph - N/A   Clear
5:58 PM 88.3 °F 92.8 °F 69.4 °F 53% 29.94 in 10.0 mi NW 5.8 mph - N/A   Clear
6:58 PM 83.8 °F 89.5 °F 72.3 °F 68% 29.96 in 10.0 mi NNE 4.6 mph - N/A   Partly Cloudy
7:58 PM 80.6 °F 85.9 °F 74.5 °F 82% 29.99 in 10.0 mi NE 2.3 mph - N/A Thunderstorm Scattered Clouds
8:58 PM 79.7 °F - 71.2 °F 75% 30.00 in 10.0 mi WSW 8.1 mph - N/A   Mostly Cloudy
9:58 PM 77.7 °F - 67.6 °F 71% 30.03 in 10.0 mi Variable 2.3 mph - N/A   Mostly Cloudy
10:58 PM 75.6 °F - 68.4 °F 78% 30.06 in 10.0 mi Variable 6.9 mph - N/A   Clear
11:58 PM 73.4 °F - 69.1 °F 86% 30.06 in 10.0 mi North 6.9 mph - N/A   Clear